Retour au catalogue

FENGYUN 1C DEB

ActifSSO
NORAD 37714·DEBRIS·🇨🇳 China

Lancé May 10, 1999 depuis Taiyuan Satellite Launch Center

Loading…

Prochains Passages (prochaines 24 heures)

TLE

FraisSource: Space-Track

Époque: Sep 14, 2026, 02:34 UTC

1 37714U 99025EMF 26257.10751353  .00002869  00000-0  10159-2 0  9997
2 37714  98.9057  21.5300 0045968 356.3043   3.7795 14.34787219614557

Suivez FENGYUN 1C DEB en temps réel avec AllMySat

Download on the App Store